Regional Weather Roundup
Issued by NWS

Home | Current Version | Previous Version | Graphics & Text | Print | Product List | Glossary On
Versions: 1 2 3 4 5 6 7 8 9 10 11 12 13 14 15 16 17 18 19 20 21 22 23 24 25 26 27 28 29 30 31 32 33 34 35 36 37 38 39 40 41 42 43 44 45 46 47 48 49 50
098
ASUS45 KSLC 200310
RWRUT

UTAH REGIONAL WEATHER ROUNDUP
NATIONAL WEATHER SERVICE SALT LAKE CITY UT
900 PM MDT SAT AUG 19 2017

UTZ001>011-023>025-200400-

NORTHERN UTAH

CITY           SKY/WX    TMP DP  RH WIND       PRES   REMARKS
BRIGHAM CITY   CLEAR     81  39  22 E5        29.97R
HILL AFB       MOCLDY    79  38  22 E6        30.01R
LOGAN          CLEAR     76  42  29 SE3       29.98R
OGDEN          PTCLDY    81  39  22 S3        29.97R
SALT LAKE CITY MOCLDY    87  39  18 CALM      29.96R
TOOELE VALLEY  PTCLDY    77  43  29 S6        29.98R
WENDOVER       MOCLDY    85  36  17 NW7       29.96R
HEBER CITY     MOCLDY    66  45  45 E5        30.08R
WEST JORDAN    PTCLDY    82  51  34 SW6       30.00S

$$

UTZ011>015-024>027-200400-

CENTRAL/NORTHEAST UTAH

CITY           SKY/WX    TMP DP  RH WIND       PRES   REMARKS
PROVO AIRPORT  MOCLDY    80  59  48 SW8       30.02R HAZE
MOAB/CANYONLAN MOCLDY    82  32  16 NW3       29.99R
DELTA          PTCLDY    79  36  21 NE7       30.01R
PRICE          MOCLDY    76  39  26 W7        30.15R
ROOSEVELT      CLOUDY    77  37  24 N6        30.11S
VERNAL         PTCLDY    73  40  30 W5        30.08R

$$

UTZ013>016-019>022-027-200400-

SOUTHERN UTAH

CITY           SKY/WX    TMP DP  RH WIND       PRES   REMARKS
BRYCE CANYON   CLEAR     60  39  45 S3        30.27R
CEDAR CITY     CLEAR     74  34  23 SW7       30.09R
MILFORD        PTCLDY    83  28  13 SW13      30.02R
ST GEORGE      MOCLDY    94  38  14 W8        29.88R
HANKSVILLE     MOCLDY    84  32  15 NW3       30.01S
BLANDING       CLEAR     72  34  24 N9        30.16R

$$

REGIONAL REPORTS     COLORADO/ARIZONA

CITY           SKY/WX    TMP DP  RH WIND       PRES   REMARKS
CRAIG, CO      CLOUDY    67  31  26 SW9       30.15R
GRAND JUNCTION CLEAR     81  34  18 N7        30.02R
RIFLE, CO      CLEAR     72  37  28 SE8       30.09R
MONTROSE, CO   CLEAR     75  39  27 VRB5      30.12R
CORTEZ, CO     CLEAR     69  34  27 CALM      30.10R
COLORADO CITY    N/A     79  41  25 CALM      30.08R
PAGE, AZ       PTCLDY    89  37  16 VRB3      29.95R
GRAND CANYON   PTCLDY    68  42  38 SW3       30.23R
KINGMAN, AZ    CLEAR     86  37  17 SW10      29.96R
FLAGSTAFF, AZ  CLEAR     67  44  43 SW3       30.27R

$$

REGIONAL REPORTS    NEVADA/IDAHO/WYOMING

CITY           SKY/WX    TMP DP  RH WIND       PRES   REMARKS
LAS VEGAS, NV  PTCLDY    97  38  13 SE8G18    29.80R HX  92
ELY, NY        MOCLDY    74  35  24 CALM      30.13R
ELKO, NV       MOCLDY    77  33  20 W7        30.01S
POCATELLO, ID  CLEAR     71  35  26 S9        29.99R
BURLEY, ID     CLEAR     68  46  45 SW7       29.98R
FORT BRIDGER,  CLEAR     70  21  16 W3        30.24R
EVANSTON, WY   CLOUDY    69  30  23 W9        30.21R
ROCK SPRINGS,  CLEAR     70  31  23 SW13      30.18R

$$




USA.gov is the U.S. government's official web portal to all federal, state and local government web resources and services.